Home   Weather   Saint-Pierre   Past weeks

Flag for Saint Pierre and Miquelon Past Weather in Saint-Pierre, Saint Pierre and Miquelon — Yesterday and Last 2 Weeks

Now
50 °F

Fog.


Feels Like: 48 °F
Forecast: 49 / 51 °F
Wind: 6 mph from Southwest

Location: Saint-Pierre

Current Time: Jun 29, 2017 at 7:06:58 am

Latest Report: Jun 29, 2017 at 6:00 am


Visibility: 0 mi

Pressure: 29.98 "Hg

Humidity: 94%

Dew Point: 48 °F

Location of Saint-PierreLocation

Past Weather in Saint-Pierre — Graph

°F

Saint-Pierre Temperature Yesterday

Maximum temperature yesterday: 57 °F (at 3:00 pm)
Minimum temperature yesterday: 48 °F (at 6:00 am)
Average temperature yesterday: 52 °F

High & Low Weather Summary for the Past Weeks

 TemperatureHumidityPressure
High63 °F (Jun 27, 7:00 pm)100% (Jun 18, 7:00 pm)30.36 "Hg (Jun 18, 7:00 pm)
Low41 °F (Jun 14, 6:00 am)42% (Jun 16, 1:00 pm)29.50 "Hg (Jun 14, 6:00 am)
Average52 °F85%29.93 "Hg
* Reported Jun 14 6:00 am — Jun 29 12:00 am, Saint-Pierre. Weather by CustomWeather, © 2017

Note: Actual official high and low records may vary slightly from our data, if they occured in-between our weather recording intervals... More about our weather records

Advertising

Saint-Pierre Weather History for the Previous 24 Hours

Scroll right to see more
 ConditionsComfort  
Time TempWeatherWind HumidityBarometerVisibility
12:00 am
Thu, Jun 29
50 °FPassing clouds.7 mph94%29.98 "HgN/A
11:00 pm
Wed, Jun 28
52 °FOvercast.6 mph100%29.98 "HgN/A
10:00 pm54 °FPartly cloudy.8 mph94%29.92 "HgN/A
9:00 pm54 °FBroken clouds.14 mph100%29.95 "HgN/A
8:00 pm52 °FBroken clouds.10 mph100%29.80 "HgN/A
7:00 pm52 °FDrizzle. Fog.15 mph100%29.86 "Hg3 mi
6:00 pm52 °FDrizzle. Fog.15 mph100%29.89 "Hg2 mi
5:00 pm52 °FDrizzle. Fog.15 mph100%29.89 "Hg2 mi
4:00 pm57 °FDrizzle. Fog.12 mph94%29.89 "Hg2 mi
3:00 pm57 °FDrizzle. Fog.12 mph94%29.92 "Hg3 mi
2:00 pm52 °FRain. Fog.13 mph100%29.95 "Hg1 mi
1:00 pm50 °FRain. Fog.12 mph94%30.01 "Hg1 mi
12:00 pm48 °FRain. Fog.21 mph100%30.01 "Hg2 mi
11:00 am50 °FRain. Fog.8 mph94%30.07 "Hg2 mi
10:00 am50 °FLight rain. Fog.6 mph100%30.09 "Hg2 mi
9:00 am50 °FLight rain. More clouds than sun.6 mph94%30.12 "Hg5 mi
8:00 am50 °FBroken clouds.6 mph94%30.12 "HgN/A
7:00 am50 °FPartly sunny.6 mph88%30.12 "HgN/A
Weather by CustomWeather, © 2017

See weather overviewHow to use our weather pages